Regional Weather Roundup
Issued by NWS

Home | Current Version | Previous Version | Text Only | Print | Product List | Glossary Off
Versions: 1 2 3 4 5 6 7 8 9 10 11 12 13 14 15 16 17 18 19 20 21 22 23 24 25 26 27 28 29 30 31 32 33 34 35 36 37 38 39 40 41 42 43 44 45 46 47 48 49 50

000
ASUS43 KFSD 161602
RWRSD

WEATHER ROUNDUP FOR SOUTH DAKOTA
NATIONAL WEATHER SERVICE SIOUX FALLS SD
1100 AM CDT MON OCT 16 2017

NOTE: "FAIR" INDICATES FEW OR NO CLOUDS BELOW 12,000 FEET WITH NO
SIGNIFICANT WEATHER AND/OR OBSTRUCTIONS TO VISIBILITY.


SDZ001>005-009-010-012>017-161700-
NORTHWEST AND NORTH CENTRAL SOUTH DAKOTA

CITY           SKY/WX    TMP DP  RH WIND       PRES   REMARKS
BUFFALO          N/A     61  31  32 W14       30.01S
FAITH            N/A     53  34  48 SW9       30.07F
MOBRIDGE       SUNNY     52  37  56 S7        30.03F
$$

SDZ012>016-024>037-041>051-057-063-072>074-161700-
SOUTHWEST AND SOUTH CENTRAL SOUTH DAKOTA

CITY           SKY/WX    TMP DP  RH WIND       PRES   REMARKS
RAPID CTY ARPT SUNNY     62  31  31 W5        30.13S
PIERRE         SUNNY     48  33  56 W9        30.09F
CUSTER         CLOUDY    54  26  34 VRB3      30.19F
ELLSWORTH AFB  SUNNY     63  29  28 SW6       30.12R
PHILIP         SUNNY     54  37  52 W15       30.11S
PINE RIDGE     CLOUDY    54  31  41 CALM      30.17F
SPEARFISH      FAIR      57  32  38 W5        30.15R
WINNER         FAIR      56  36  47 SW13      30.12F
$$

SDZ004>011-016>023-039-040-161700-
NORTHEAST SOUTH DAKOTA

CITY           SKY/WX    TMP DP  RH WIND       PRES   REMARKS
ABERDEEN       SUNNY     50  37  61 SW9       30.08F
WATERTOWN      SUNNY     53  39  59 S14       30.11F
BROOKINGS      SUNNY     54  38  54 S14       30.17F
SISSETON         N/A     59  36  42 SW14G26   30.05F
$$

SDZ017-020-022-023-036>040-048>070-161700-
SOUTHEAST SOUTH DAKOTA

CITY           SKY/WX    TMP DP  RH WIND       PRES   REMARKS
SIOUX FALLS    SUNNY     56  39  53 S7        30.21F
HURON          SUNNY     52  37  56 S9        30.12F
CHAMBERLAIN    SUNNY     57  37  48 SW9       30.12S
MITCHELL       SUNNY     57  40  52 S10       30.15F
YANKTON        SUNNY     61  38  42 S12       30.20F
$$

ABBREVIATIONS USED IN REMARKS
   TC - TEMPERATURE IN CELSIUS
  WCI - WIND CHILL INDEX
   HX - HEAT INDEX
  VSB - VISIBILITY





USA.gov is the U.S. government's official web portal to all federal, state and local government web resources and services.